25/03/2024

Espurna febrero 2024

Publicado el boletín Espurna núm. 177, correspondiente al mes de febrero de 2024. 
Incendios forestales > Informes mensuales

22/03/2024

Boletín informativo HCV

PRETICOR núm. 2 elaborado por UT902, febrero 2024. Meteorología > Observaciones > Humedad Combustible

08/02/2024

Infomes Post-incendio

Nuevo informe de la Unidad de Análisis de Incendios Forestales UT902 para La Vall d'Ebo 13/08/2022.
Incendios forestales > Informes post-incendio

Datos Meteorológicos

CS VLC ALI
Observatorio Temp H.R. Lluvia Vto. dir. Vel. Fecha
Aitana 18 31 9 15/04/2024 18:00
Aixorta 19 38 12 15/04/2024 18:00
Alto de Alcola 26 30 2 15/04/2024 18:00
Alto del Pino 20 33 3 15/04/2024 18:00
Ametler 19 40 12 15/04/2024 18:00
Benicadell 23 26 12 15/04/2024 18:00
Besori 22 45 7 15/04/2024 18:00
Boqueras 21 31 8 15/04/2024 18:00
Cabezo 20 31 10 15/04/2024 18:00
Caperucho 27 26 8 15/04/2024 18:00
Caroche 21 31 6 15/04/2024 18:00
Castillico 23 28 10 15/04/2024 18:00
Cerro Simón 21 31 10 15/04/2024 18:00
Cocoll 20 34 8 15/04/2024 18:00
Creu del Gelat 23 37 39 15/04/2024 18:00
Desert de les Palmes 20 38 5 15/04/2024 18:00
El Gavilán 20 37 8 15/04/2024 18:00
El Salviar 17 36 15 15/04/2024 18:00
El Turmell 20 37 1 15/04/2024 18:00
Font Roja 20 31 10 15/04/2024 18:00
Fredes 19 49 14 15/04/2024 18:00
La Travina 22 27 10 15/04/2024 18:00
Las Hierbas 21 38 7 15/04/2024 18:00
Lloma Bernat 20 33 19 15/04/2024 18:00
Maigmó 19 36 16 15/04/2024 18:00
Mariola 20 26 6 15/04/2024 18:00
Miserat 21 32 2 15/04/2024 18:00
Moluengo 21 47 3 15/04/2024 18:00
Mondúver 18 33 10 15/04/2024 18:00
Palmeral 25 26 25 15/04/2024 18:00
Penyagolosa 15 47 19 15/04/2024 18:00
Pico del Remedio 23 31 10 15/04/2024 18:00
Pico Ropé 18 33 6 15/04/2024 18:00
Puntal Aljibe 20 32 7 15/04/2024 18:00
Reclot 19 35 18 15/04/2024 18:00
Reconco 17 37 22 15/04/2024 18:00
Santa Bárbara 17 37 16 15/04/2024 18:00
Santa Faz 21 52 6 15/04/2024 18:00
Serrella 21 37 6 15/04/2024 18:00
Sierra Martés 19 40 25 15/04/2024 18:00
Sierra Negrete 18 34 3 15/04/2024 18:00
Vallada 22 28 16 15/04/2024 18:00
Sierra del Ave 23 26 0 15 15/04/2024 14:00
Cabeçó d'or 21 48 5 14/04/2024 18:00
Coll de Rates 15 42 9 14/04/2024 09:00
Municipio Festejo Fecha
Cocentaina Mare de Déu del Miracle 18/04-21/04
Banyeres de Mariola Moros y cristianos 22/04-23/04
Banyeres de Mariola Moros y Cristianos 22/04-25/04
Onil Moros y Cristianos 22/04-22/04
Onil Moros y Cristianos 23/04-01/05
Onil Moros y Cristianos 23/04-23/04
Sinarcas San Marcos 27/04-27/04
Bocairent Sant Jaume 30/04-01/05
Senija Mare de Déu dels Desemparats 06/05-07/05

Leyenda